DW6119 Weather Reports


Display with metric or nautical units.
time (UTC)temp
F
wind
direction
speed
MPH
gust
MPH
rain 1hr
in
rain 24hr
in
rain mn
in
humidity
%
barometer
mb
20260508024913 52 36 0.0 3.0 0.00 0.17 0.00 90 1017.3
20260508024413 52 238 0.0 2.0 0.00 0.17 0.00 91 1017.3
20260508023913 52 238 1.0 2.0 0.00 0.17 0.00 91 1017.3
20260508023413 52 178 0.0 1.0 0.00 0.17 0.00 91 1017.3
20260508022912 52 33 0.0 1.0 0.00 0.17 0.00 91 1017.3
20260508022413 52 33 0.0 1.0 0.00 0.17 0.00 91 1017.3
20260508021413 52 34 0.0 1.0 0.00 0.17 0.00 91 1017.5
20260508020914 52 207 0.0 1.0 0.00 0.17 0.00 91 1017.3
20260508020413 52 207 0.0 1.0 0.00 0.17 0.00 91 1017.3
20260508015913 52 75 0.0 1.0 0.00 0.17 0.00 91 1017.3
20260508015414 52 213 0.0 1.0 0.00 0.17 0.00 91 1017.3
20260508014913 52 73 0.0 1.0 0.00 0.17 0.00 91 1017.3
20260508014414 52 85 0.0 2.0 0.00 0.17 0.00 91 1017.3
20260508013913 52 202 1.0 2.0 0.00 0.17 0.00 91 1017.3
20260508013414 52 68 1.0 2.0 0.00 0.17 0.00 91 1017.3
20260508012915 52 192 0.0 1.0 0.00 0.17 0.00 91 1017.3
20260508012414 52 201 0.0 1.0 0.00 0.17 0.00 91 1017.3
20260508011913 52 201 0.0 1.0 0.00 0.17 0.00 91 1017.3
20260508010913 52 192 0.0 0.0 0.00 0.17 0.00 91 1017.3
20260508005414 52 247 0.0 1.0 0.00 0.17 0.00 92 1016.9
20260508004413 52 248 0.0 0.0 0.00 0.17 0.00 91 1017.3
20260508003913 52 248 0.0 0.0 0.00 0.17 0.00 91 1016.9
20260508002913 52 247 0.0 1.0 0.00 0.17 0.00 91 1016.9
20260508002413 52 247 0.0 1.0 0.00 0.17 0.00 91 1016.9
20260508001913 52 247 0.0 1.0 0.00 0.17 0.00 91 1017.0
20260508001413 53 247 0.0 1.0 0.00 0.17 0.00 90 1016.9
20260508000915 53 247 1.0 1.0 0.00 0.17 0.00 90 1016.9
20260508000413 53 165 0.0 1.0 0.00 0.17 0.00 90 1016.9
20260507235913 53 81 0.0 1.0 0.00 0.17 0.00 90 1016.9
20260507235416 53 216 0.0 1.0 0.00 0.17 0.00 90 1016.9
20260507234913 53 216 1.0 1.0 0.00 0.17 0.00 91 1016.9
20260507233913 53 59 0.0 1.0 0.00 0.17 0.00 91 1016.7
20260507233413 53 69 0.0 1.0 0.00 0.17 0.00 91 1016.8
20260507232413 53 58 0.0 0.0 0.00 0.17 0.00 91 1016.9
20260507231914 53 58 0.0 1.0 0.00 0.17 0.00 91 1016.9
20260507231413 53 58 0.0 1.0 0.00 0.18 0.00 91 1016.7
20260507230913 53 53 0.0 1.0 0.00 0.18 0.00 91 1016.9
20260507230413 53 53 1.0 1.0 0.00 0.18 0.00 91 1017.2
20260507225913 53 114 0.0 1.0 0.00 0.18 0.00 91 1017.2
20260507225415 53 195 0.0 1.0 0.00 0.18 0.00 91 1017.3
20260507224913 53 198 0.0 1.0 0.00 0.18 0.00 91 1017.3
20260507223913 53 84 1.0 1.0 0.00 0.18 0.00 90 1017.0
20260507223413 54 92 0.0 0.0 0.00 0.18 0.00 90 1017.2
20260507222913 54 92 0.0 0.0 0.00 0.18 0.00 90 1016.9
20260507222414 54 92 0.0 1.0 0.00 0.18 0.00 90 1016.9
20260507221913 54 332 0.0 1.0 0.00 0.18 0.00 90 1016.8
20260507221413 54 314 0.0 1.0 0.00 0.18 0.00 89 1016.8
20260507220913 54 19 0.0 0.0 0.00 0.18 0.00 90 1016.9
20260507220414 54 19 0.0 1.0 0.00 0.18 0.00 89 1016.9
20260507215913 54 56 0.0 1.0 0.00 0.18 0.18 89 1016.6
20260507215413 54 69 0.0 1.0 0.00 0.18 0.18 89 1016.9
20260507214913 54 60 0.0 1.0 0.00 0.18 0.18 89 1016.6
20260507214415 54 77 0.0 0.0 0.00 0.18 0.18 90 1016.6
20260507213913 54 144 0.0 0.0 0.00 0.18 0.18 90 1016.6
20260507213414 54 81 0.0 0.0 0.00 0.18 0.18 90 1016.6
20260507212913 54 81 0.0 0.0 0.00 0.18 0.18 90 1016.5
20260507212413 55 81 0.0 0.0 0.00 0.18 0.18 90 1016.6
20260507211413 55 82 0.0 0.0 0.00 0.18 0.18 90 1016.6
20260507210914 55 167 0.0 0.0 0.00 0.18 0.18 90 1016.6
20260507210414 55 99 0.0 0.0 0.00 0.18 0.18 90 1016.6
20260507205914 55 99 0.0 0.0 0.00 0.18 0.18 90 1016.6
20260507205413 55 113 0.0 0.0 0.00 0.18 0.18 90 1016.6
20260507204913 55 190 0.0 0.0 0.00 0.18 0.18 90 1016.6
20260507204413 55 74 0.0 0.0 0.00 0.18 0.18 90 1016.6
20260507203914 55 74 0.0 0.0 0.00 0.18 0.18 89 1016.6
20260507203414 55 64 0.0 0.0 0.00 0.18 0.18 90 1016.4
20260507202913 55 80 0.0 1.0 0.00 0.18 0.18 89 1016.3
20260507202414 55 82 0.0 1.0 0.00 0.18 0.18 89 1016.3
20260507201413 55 101 0.0 0.0 0.00 0.18 0.18 89 1015.9
20260507200413 56 138 0.0 0.0 0.00 0.18 0.18 89 1015.9
20260507195415 56 173 0.0 2.0 0.00 0.18 0.18 88 1015.9
20260507194414 56 81 1.0 2.0 0.00 0.18 0.18 89 1015.9
20260507193913 56 70 0.0 1.0 0.00 0.18 0.18 89 1015.8
20260507193413 56 152 0.0 0.0 0.00 0.18 0.18 89 1015.6
20260507192913 56 110 0.0 0.0 0.00 0.18 0.18 90 1015.9
20260507191913 56 175 0.0 1.0 0.00 0.18 0.18 90 1015.6
20260507191414 56 89 0.0 1.0 0.00 0.18 0.18 90 1015.6
20260507190913 56 167 0.0 1.0 0.00 0.18 0.18 89 1015.2
20260507190414 56 201 0.0 1.0 0.00 0.18 0.18 89 1015.2
20260507185413 57 93 0.0 2.0 0.00 0.18 0.18 89 1015.2
20260507184913 56 81 0.0 2.0 0.00 0.18 0.18 89 1014.9
20260507183914 57 149 0.0 1.0 0.00 0.18 0.18 89 1014.9
20260507183413 57 194 0.0 1.0 0.00 0.18 0.18 89 1014.7
20260507182414 57 85 0.0 1.0 0.00 0.18 0.18 89 1014.3
20260507181913 57 196 0.0 1.0 0.00 0.18 0.18 89 1014.6
20260507181413 57 177 0.0 1.0 0.00 0.18 0.18 89 1014.6
20260507180914 57 116 0.0 0.0 0.00 0.18 0.18 90 1014.5
20260507180412 57 191 0.0 1.0 0.00 0.18 0.18 89 1014.2
20260507175913 57 124 0.0 1.0 0.00 0.18 0.18 89 1014.2
20260507175413 58 192 0.0 1.0 0.00 0.18 0.18 89 1014.0
20260507174913 58 150 0.0 1.0 0.00 0.18 0.18 89 1014.0
20260507174413 58 249 1.0 1.0 0.00 0.18 0.18 89 1014.1
20260507173913 58 92 0.0 1.0 0.00 0.18 0.18 89 1013.9
20260507173413 58 208 0.0 1.0 0.00 0.18 0.18 90 1013.6
20260507172913 58 169 0.0 1.0 0.00 0.18 0.18 90 1013.6
20260507171414 58 79 0.0 1.0 0.00 0.18 0.18 89 1013.5
20260507170413 58 212 0.0 1.0 0.00 0.18 0.18 89 1013.5
20260507165913 59 177 0.0 1.0 0.00 0.18 0.18 89 1013.5
20260507164913 59 154 0.0 1.0 0.00 0.18 0.18 89 1013.5
20260507163913 60 178 0.0 3.0 0.00 0.18 0.18 88 1013.5
20260507163413 60 144 0.0 3.0 0.00 0.18 0.18 87 1013.5
20260507162913 60 128 0.0 2.0 0.00 0.18 0.18 88 1013.5
20260507162413 60 213 0.0 2.0 0.00 0.18 0.18 88 1013.7
20260507161914 61 195 1.0 2.0 0.00 0.18 0.18 87 1013.5
20260507161414 62 190 0.0 1.0 0.00 0.18 0.18 88 1013.5
20260507160914 62 190 0.0 2.0 0.00 0.18 0.18 87 1013.7
20260507160415 62 180 0.0 2.0 0.00 0.18 0.18 86 1013.5
20260507155914 63 205 0.0 1.0 0.00 0.18 0.18 83 1013.8
20260507155413 63 163 0.0 2.0 0.00 0.18 0.18 84 1013.8
20260507154913 61 304 0.0 2.0 0.00 0.18 0.18 89 1013.6
20260507153913 61 148 0.0 2.0 0.00 0.18 0.18 89 1013.9
20260507153413 61 171 0.0 1.0 0.00 0.18 0.18 89 1013.7
20260507152915 61 139 0.0 1.0 0.00 0.18 0.18 89 1013.7
20260507151913 61 135 0.0 1.0 0.00 0.18 0.18 89 1013.5
20260507151414 61 175 0.0 1.0 0.00 0.18 0.18 89 1013.6
20260507150414 62 202 0.0 1.0 0.00 0.18 0.18 88 1013.5
20260507145914 62 189 0.0 1.0 0.00 0.18 0.18 88 1013.5
20260507145414 62 184 0.0 1.0 0.01 0.18 0.18 87 1013.7
20260507144914 62 250 0.0 2.0 0.13 0.18 0.18 87 1013.5
20260507144413 61 195 0.0 2.0 0.14 0.18 0.18 87 1013.5
20260507143913 62 143 0.0 1.0 0.15 0.18 0.18 88 1013.6
20260507143414 62 63 1.0 1.0 0.16 0.18 0.18 86 1013.9
20260507142913 62 161 0.0 1.0 0.16 0.18 0.18 86 1013.5
20260507142414 63 221 0.0 1.0 0.16 0.18 0.18 82 1013.6
20260507141914 63 246 0.0 1.0 0.16 0.18 0.18 78 1013.5
20260507140914 61 49 0.0 2.0 0.16 0.18 0.18 83 1013.9
20260507140413 60 68 0.0 2.0 0.16 0.18 0.18 85 1014.2
20260507135914 60 243 1.0 2.0 0.16 0.18 0.18 88 1014.2
20260507135414 60 135 0.0 2.0 0.15 0.17 0.17 83 1014.6
20260507134915 60 227 1.0 2.0 0.03 0.05 0.05 84 1014.3
20260507134414 61 213 0.0 2.0 0.02 0.04 0.04 82 1014.4
20260507133915 61 80 1.0 3.0 0.01 0.03 0.03 80 1014.2
20260507133414 61 191 1.0 3.0 0.00 0.02 0.02 79 1014.2
20260507132914 62 71 1.0 2.0 0.00 0.02 0.02 76 1014.2
20260507132413 62 50 0.0 5.0 0.00 0.02 0.02 77 1014.2
20260507131916 62 82 0.0 5.0 0.00 0.02 0.02 78 1013.9
20260507131414 62 85 1.0 5.0 0.00 0.02 0.02 76 1014.2
20260507130915 64 65 1.0 3.0 0.00 0.06 0.02 73 1013.9
20260507130413 65 66 1.0 5.0 0.00 0.08 0.02 69 1013.9
20260507125915 65 75 1.0 5.0 0.00 0.11 0.02 67 1013.7
20260507125414 66 250 0.0 2.0 0.00 0.13 0.02 67 1013.5
20260507124914 65 257 0.0 2.0 0.00 0.14 0.02 65 1013.5
20260507124414 65 62 0.0 2.0 0.00 0.15 0.02 61 1013.6
20260507123413 65 169 1.0 10.0 0.01 0.21 0.02 63 1013.9
20260507122914 64 80 2.0 10.0 0.01 0.24 0.02 65 1013.9
20260507122413 64 62 2.0 10.0 0.01 0.28 0.02 66 1013.9
20260507121914 64 111 1.0 8.0 0.01 0.30 0.02 67 1013.7
20260507121416 65 91 2.0 8.0 0.01 0.31 0.02 67 1013.9
20260507120913 65 81 2.0 8.0 0.01 0.32 0.02 62 1013.9
20260507120413 66 250 1.0 7.0 0.01 0.34 0.02 69 1013.9
20260507115914 66 251 1.0 9.0 0.01 0.44 0.02 70 1013.9
20260507115413 66 199 3.0 9.0 0.01 0.55 0.02 67 1013.9
20260507114914 66 251 1.0 7.0 0.01 0.62 0.02 73 1013.5
20260507114414 66 255 2.0 8.0 0.01 0.62 0.02 66 1013.5
20260507113914 66 250 2.0 9.0 0.01 0.62 0.02 67 1013.5
20260507113414 67 235 3.0 9.0 0.00 0.61 0.01 61 1013.5
20260507112915 68 238 5.0 9.0 0.00 0.61 0.01 58 1013.5
20260507112414 68 269 4.0 10.0 0.00 0.61 0.01 53 1013.5
20260507111413 70 247 3.0 10.0 0.00 0.61 0.01 51 1013.5
20260507110413 71 255 2.0 9.0 0.00 0.61 0.01 50 1013.2
20260507105915 71 223 3.0 9.0 0.00 0.61 0.01 50 1013.4
20260507104414 69 220 3.0 10.0 0.00 0.61 0.01 53 1013.2
20260507103914 70 237 3.0 10.0 0.00 0.61 0.01 52 1013.5
20260507101914 67 244 4.0 10.0 0.00 0.61 0.01 58 1013.5
20260507101413 69 241 3.0 9.0 0.00 0.61 0.01 55 1013.5
20260507100914 69 257 4.0 9.0 0.00 0.62 0.01 52 1013.5
20260507100413 68 266 6.0 9.0 0.00 0.62 0.01 55 1013.5
20260507095914 68 234 2.0 7.0 0.00 0.62 0.01 58 1013.6
20260507094413 68 239 2.0 7.0 0.00 0.62 0.01 58 1013.5
20260507093413 66 225 1.0 7.0 0.00 0.62 0.01 62 1013.6
20260507092913 66 265 1.0 3.0 0.00 0.62 0.01 61 1013.9
20260507092413 66 240 2.0 3.0 0.00 0.62 0.01 60 1013.9
20260507091913 65 61 1.0 3.0 0.00 0.62 0.01 62 1013.9
20260507091414 65 82 1.0 3.0 0.00 0.62 0.01 61 1014.1
20260507090914 66 253 2.0 3.0 0.00 0.62 0.01 62 1014.0
20260507090413 65 12 0.0 2.0 0.00 0.63 0.01 62 1014.0
20260507085915 65 86 0.0 2.0 0.00 0.66 0.01 62 1014.1
20260507085414 65 108 1.0 2.0 0.00 0.67 0.01 63 1014.1
20260507084915 64 322 0.0 2.0 0.00 0.67 0.01 63 1014.2
20260507084414 64 56 0.0 2.0 0.00 0.67 0.01 65 1013.9
20260507083914 64 51 1.0 2.0 0.00 0.67 0.01 66 1013.9
20260507083414 64 114 0.0 2.0 0.00 0.67 0.01 66 1014.2
20260507082913 63 77 1.0 2.0 0.00 0.67 0.01 68 1014.2
20260507081913 62 67 1.0 2.0 0.00 0.67 0.01 69 1014.2
20260507080915 62 75 1.0 3.0 0.00 0.67 0.01 72 1014.2
20260507080414 61 71 1.0 3.0 0.00 0.67 0.01 72 1014.3
20260507075913 61 33 1.0 3.0 0.00 0.67 0.01 72 1014.2
20260507075415 62 61 1.0 3.0 0.00 0.67 0.01 72 1014.2
20260507074914 61 53 0.0 2.0 0.00 0.67 0.01 74 1014.4
20260507074413 61 349 0.0 2.0 0.00 0.67 0.01 75 1014.6
20260507073916 60 45 0.0 2.0 0.00 0.67 0.01 76 1014.6
20260507073414 60 46 1.0 2.0 0.00 0.67 0.01 76 1014.6
20260507072914 59 45 0.0 3.0 0.00 0.67 0.01 78 1014.6
20260507072414 59 26 1.0 3.0 0.00 0.67 0.01 78 1014.6
20260507071414 59 48 1.0 3.0 0.00 0.67 0.01 79 1014.4
20260507070914 59 53 1.0 3.0 0.00 0.67 0.01 79 1014.6
20260507070415 58 40 0.0 3.0 0.00 0.67 0.01 79 1014.3
20260507065914 58 70 1.0 3.0 0.00 0.67 0.01 80 1014.5
20260507064913 58 52 1.0 3.0 0.00 0.67 0.01 82 1014.6
20260507064414 57 34 0.0 2.0 0.00 0.68 0.01 82 1014.6
20260507063914 57 33 0.0 1.0 0.00 0.68 0.01 84 1014.2
20260507063414 56 82 0.0 2.0 0.00 0.68 0.01 83 1014.2
20260507062916 56 252 0.0 2.0 0.00 0.69 0.01 82 1014.4
20260507062414 56 65 0.0 2.0 0.00 0.69 0.01 84 1014.2
20260507061413 55 44 0.0 1.0 0.00 0.71 0.01 86 1014.6
20260507060915 55 257 0.0 1.0 0.00 0.72 0.01 86 1014.5
20260507060413 55 4 0.0 3.0 0.00 0.73 0.01 86 1014.3
20260507055913 54 65 0.0 3.0 0.00 0.75 0.01 87 1014.2
20260507055414 54 60 1.0 3.0 0.00 0.77 0.01 87 1014.2
20260507054913 54 136 1.0 2.0 0.00 0.79 0.01 87 1014.5
20260507054413 54 45 0.0 1.0 0.00 0.80 0.01 88 1014.2
20260507053914 55 45 0.0 1.0 0.00 0.81 0.01 90 1014.2
20260507053414 54 254 0.0 1.0 0.00 0.81 0.01 89 1014.5
20260507052914 54 50 0.0 1.0 0.00 0.82 0.01 90 1014.2
20260507051914 54 74 0.0 2.0 0.00 0.83 0.01 91 1014.4
20260507051414 53 69 0.0 2.0 0.00 0.83 0.01 92 1014.2
20260507050913 53 53 1.0 2.0 0.00 0.83 0.01 93 1014.2
20260507050414 53 34 0.0 1.0 0.00 0.83 0.01 94 1014.5
20260507045914 53 72 0.0 1.0 0.00 0.83 0.01 95 1014.2
20260507045413 52 62 0.0 0.0 0.00 0.83 0.01 95 1014.2
20260507044414 52 49 0.0 1.0 0.00 0.83 0.01 95 1014.2
20260507043916 52 48 0.0 1.0 0.00 0.83 0.01 95 1014.2
20260507042913 52 218 0.0 1.0 0.00 0.83 0.01 95 1013.9
20260507042416 52 160 0.0 1.0 0.00 0.83 0.01 96 1013.9
20260507041414 52 165 0.0 1.0 0.00 0.83 0.01 96 1013.9
20260507040914 52 145 0.0 1.0 0.00 0.83 0.01 95 1013.9
20260507040414 52 174 0.0 1.0 0.00 0.83 0.01 95 1013.9
20260507035914 52 248 0.0 1.0 0.00 0.83 0.01 95 1013.9
20260507034414 52 218 0.0 0.0 0.00 0.83 0.01 95 1013.8
20260507033917 52 194 0.0 0.0 0.00 0.83 0.01 95 1013.9
20260507033416 52 135 0.0 0.0 0.00 0.83 0.01 95 1013.7
20260507032914 52 198 0.0 1.0 0.00 0.83 0.01 95 1013.5
20260507032414 53 174 0.0 1.0 0.00 0.83 0.01 95 1013.5
20260507031914 53 76 0.0 1.0 0.00 0.83 0.01 95 1013.5
20260507031414 53 73 0.0 1.0 0.00 0.83 0.01 95 1013.5
20260507030914 53 73 0.0 1.0 0.00 0.83 0.01 95 1013.5
20260507030414 53 72 0.0 1.0 0.00 0.83 0.01 95 1013.5
20260507025914 53 73 1.0 1.0 0.00 0.83 0.01 95 1013.5
20260507025416 53 250 0.0 1.0 0.00 0.83 0.01 95 1013.7